Starlink 11334

operational
NORAD ID: 61250 Int'l Des: 2024-175 Owner: SPXS Country: US Constellation: starlink
LEOCIRCULAR

Starlink 11334について

説明を読み込み中...

リアルタイム位置

3D地球を読み込み中...

次回通過

高度履歴

Altitude vs Time

uPlot chart will show altitude changes over time

軌道要素

1 61250U 24175H 25259.58337963 .00285458 00000-0 13003-2 0 9991
2 61250 53.1457 191.6232 0003857 120.2409 140.9963 15.82501073 6062
Epoch: Sep 16, 2025 • Age: 12 hours

現在のステータス

高度 327.7 km
速度 7.71 km/s
衛星直下点 -19.60°S, 0.04°W
打ち上げ日 Sep 25, 2024
運用期間 0.9 years
タイプ internet

技術仕様

分類 Payload
質量 960.00 kg
乾燥質量 910.00 kg
総質量 960.00 kg
長さ 0.30 m
直径 4.10 m
スパン 29.00 m
形状 Box + pan
製造者 SPXS
バスタイプ Starlink V2MD
フェーズステータス In Orbit
所有者/国 SPXS/US

大規模コンステレーション

Loading constellations...